�N����,����,�~����,�C��,���x,�C��,����,���ϕ���,�ő�u�ԕ���,�ő厞����,���˗�,�I�_���x,�n�����x,�ő啗���N��,DTYPE
"22/04/10","00:10",0.0,11.3,74.7,1015.2,332.3,1.6,2.4,307.1,0.00,7.0,14.2,"00:00:40",1
"22/04/10","00:20",0.0,10.9,75.8,1014.9,275.5,1.5,1.9,301.0,0.00,6.8,14.4,"00:10:40",1
"22/04/10","00:30",0.0,11.0,77.4,1014.7,330.8,1.8,2.9,307.4,0.00,7.2,14.4,"00:24:24",1
"22/04/10","00:40",0.0,10.5,78.4,1015.2,306.7,1.3,2.0,310.4,0.00,6.9,14.3,"00:36:48",1
"22/04/10","00:50",0.0,10.2,79.6,1015.2,288.3,1.5,2.1,254.5,0.00,6.9,14.2,"00:45:52",1
"22/04/10","01:00",0.0,10.5,80.0,1015.4,335.2,1.6,2.2,340.8,0.00,7.2,14.1,"00:54:24",1
"22/04/10","01:10",0.0,10.4,80.2,1015.4,302.5,1.7,2.9,336.2,0.00,7.2,14.2,"01:08:00",1
"22/04/10","01:20",0.0,10.5,80.2,1015.4,308.2,1.7,2.6,318.5,0.00,7.3,13.9,"01:19:44",1
"22/04/10","01:30",0.0,10.7,80.0,1015.4,323.7,2.3,4.0,324.6,0.00,7.4,14.2,"01:24:40",1
"22/04/10","01:40",0.0,10.8,79.8,1015.4,289.7,1.8,2.4,273.5,0.00,7.5,14.0,"01:36:24",1
"22/04/10","01:50",0.0,10.9,79.4,1015.2,307.0,1.8,2.4,307.8,0.00,7.5,13.9,"01:49:44",1
"22/04/10","02:00",0.0,10.6,79.0,1015.2,319.2,1.7,2.6,344.4,0.00,7.2,13.8,"01:51:20",1
"22/04/10","02:10",0.0,10.3,79.3,1015.2,284.8,1.5,2.4,317.3,0.00,6.9,14.0,"02:07:28",1
"22/04/10","02:20",0.0,10.4,79.8,1015.4,292.4,1.7,2.5,286.4,0.00,7.1,13.6,"02:17:04",1
"22/04/10","02:30",0.0,10.7,80.0,1015.2,314.1,1.8,2.6,310.1,0.00,7.4,13.6,"02:24:32",1
"22/04/10","02:40",0.0,10.0,80.4,1015.4,316.0,1.7,2.5,317.3,0.00,6.8,13.7,"02:31:44",1
"22/04/10","02:50",0.0,10.1,81.3,1015.6,316.4,2.1,2.6,318.1,0.00,7.1,13.7,"02:42:40",1
"22/04/10","03:00",0.0,10.1,81.7,1015.4,299.5,1.7,2.5,323.0,0.00,7.2,13.7,"02:59:52",1
"22/04/10","03:10",0.0,10.2,82.0,1015.4,296.8,2.2,3.1,316.4,0.00,7.3,13.4,"03:06:48",1
"22/04/10","03:20",0.0,10.2,82.0,1014.9,291.4,1.8,2.2,284.1,0.00,7.3,13.6,"03:10:40",1
"22/04/10","03:30",0.0,10.3,81.9,1015.4,297.5,2.2,3.1,317.2,0.00,7.4,13.5,"03:25:36",1
"22/04/10","03:40",0.0,10.2,81.7,1015.2,300.7,1.7,2.0,314.4,0.00,7.3,13.4,"03:37:36",1
"22/04/10","03:50",0.0,9.5,82.3,1015.4,331.1,1.8,2.4,334.7,0.00,6.7,13.4,"03:42:32",1
"22/04/10","04:00",0.0,9.1,83.3,1015.4,310.7,1.2,2.1,335.5,0.00,6.5,13.5,"03:50:08",1
"22/04/10","04:10",0.0,9.1,84.3,1015.4,324.3,1.6,2.5,317.8,0.00,6.6,13.2,"04:00:40",1
"22/04/10","04:20",0.0,9.1,85.1,1015.4,314.5,1.8,2.8,328.0,0.00,6.8,13.3,"04:17:20",1
"22/04/10","04:30",0.0,9.3,85.6,1015.4,307.9,2.2,2.8,320.0,0.00,7.1,13.2,"04:26:32",1
"22/04/10","04:40",0.0,9.4,85.8,1015.4,293.2,1.7,2.4,302.6,0.00,7.2,13.2,"04:31:12",1
"22/04/10","04:50",0.0,9.4,85.9,1015.4,286.8,1.6,2.2,312.2,0.00,7.2,13.3,"04:40:24",1
"22/04/10","05:00",0.0,9.2,86.0,1015.4,301.4,1.5,2.4,334.5,0.00,7.0,13.1,"04:59:44",1
"22/04/10","05:10",0.0,9.0,86.6,1015.4,334.5,2.0,2.4,335.1,0.00,6.9,13.2,"05:01:20",1
"22/04/10","05:20",0.0,8.6,87.1,1015.6,314.2,1.6,2.0,325.8,0.00,6.6,13.0,"05:10:24",1
"22/04/10","05:30",0.0,8.6,87.5,1015.4,306.5,1.5,1.8,310.7,0.00,6.7,13.0,"05:26:40",1
"22/04/10","05:40",0.0,8.7,88.2,1015.4,294.0,1.7,2.4,293.1,0.00,6.9,12.8,"05:39:04",1
"22/04/10","05:50",0.0,8.9,88.5,1015.2,294.4,1.7,2.5,317.4,0.00,7.1,12.9,"05:43:28",1
"22/04/10","06:00",0.0,9.1,88.7,1015.2,306.9,2.1,3.1,305.2,0.00,7.4,12.9,"05:56:40",1
"22/04/10","06:10",0.0,9.0,88.7,1015.4,296.6,1.3,2.1,317.7,0.00,7.3,12.8,"06:00:32",1
"22/04/10","06:20",0.0,8.7,89.1,1015.4,300.7,1.3,2.0,317.4,0.00,7.0,12.8,"06:19:20",1
"22/04/10","06:30",0.0,8.9,89.2,1015.9,329.6,1.8,2.5,336.8,0.00,7.3,12.9,"06:25:20",1
"22/04/10","06:40",0.0,9.0,89.5,1015.6,313.6,1.5,1.9,316.8,0.00,7.4,12.5,"06:38:56",1
"22/04/10","06:50",0.0,9.4,89.8,1015.6,291.2,1.5,2.5,304.9,0.01,7.9,12.8,"06:48:56",1
"22/04/10","07:00",0.0,10.2,89.8,1015.9,293.3,1.6,2.4,321.4,0.03,8.6,12.7,"06:57:12",1
"22/04/10","07:10",0.0,10.7,89.5,1015.9,335.2,1.7,2.2,336.1,0.04,9.1,12.8,"07:02:40",1
"22/04/10","07:20",0.0,11.2,89.5,1015.9,320.7,1.5,2.0,353.5,0.06,9.6,12.6,"07:10:08",1
"22/04/10","07:30",0.0,11.9,89.6,1016.4,290.8,1.1,1.3,319.6,0.08,10.3,12.7,"07:28:00",1
"22/04/10","07:40",0.0,13.0,89.3,1016.4,303.4,1.0,1.4,312.0,0.10,11.3,12.6,"07:30:08",1
"22/04/10","07:50",0.0,13.7,88.1,1016.4,8.3,0.2,0.6,312.2,0.12,11.8,12.7,"07:40:08",1
"22/04/10","08:00",0.0,14.5,86.3,1016.8,321.7,0.5,1.2,314.7,0.14,12.3,12.7,"07:52:48",1
"22/04/10","08:10",0.0,15.1,84.3,1016.8,273.0,0.7,1.0,269.8,0.17,12.5,12.6,"08:04:16",1
"22/04/10","08:20",0.0,15.6,82.5,1017.1,299.0,0.5,1.1,274.8,0.20,12.7,12.7,"08:13:20",1
"22/04/10","08:30",0.0,16.7,79.6,1016.8,326.0,0.3,1.1,328.7,0.23,13.2,12.7,"08:27:20",1
"22/04/10","08:40",0.0,17.1,76.3,1017.1,118.9,0.3,1.3,121.7,0.26,12.9,12.8,"08:33:20",1
"22/04/10","08:50",0.0,17.7,72.9,1016.8,105.6,0.3,1.1,100.0,0.28,12.8,12.7,"08:45:28",1
"22/04/10","09:00",0.0,18.4,69.9,1016.8,135.1,0.7,1.9,113.8,0.31,12.9,12.8,"08:59:04",1
"22/04/10","09:10",0.0,18.6,69.8,1016.6,130.6,0.8,2.0,146.6,0.34,13.0,13.0,"09:06:16",1
"22/04/10","09:20",0.0,18.9,69.8,1016.4,178.4,1.0,2.5,111.6,0.34,13.3,12.9,"09:14:24",1
"22/04/10","09:30",0.0,19.2,68.4,1016.4,175.1,1.2,2.4,139.0,0.38,13.3,13.2,"09:21:36",1
"22/04/10","09:40",0.0,19.4,67.2,1016.4,154.4,1.5,2.6,200.6,0.41,13.2,13.1,"09:32:16",1
"22/04/10","09:50",0.0,19.7,65.4,1016.4,131.2,1.5,3.7,128.3,0.43,13.1,13.3,"09:43:12",1
"22/04/10","10:00",0.0,19.8,65.1,1016.1,129.0,1.8,3.7,122.8,0.45,13.1,13.2,"09:57:44",1
"22/04/10","10:10",0.0,20.2,64.8,1016.1,154.6,1.6,4.2,126.9,0.47,13.4,13.3,"10:05:04",1
"22/04/10","10:20",0.0,20.7,63.7,1016.4,175.9,1.3,4.1,156.1,0.49,13.6,13.3,"10:15:12",1
"22/04/10","10:30",0.0,21.0,61.9,1016.1,152.9,1.5,3.9,117.7,0.50,13.5,13.6,"10:27:20",1
"22/04/10","10:40",0.0,21.2,60.8,1016.1,158.3,1.6,3.4,154.0,0.52,13.4,13.7,"10:37:20",1
"22/04/10","10:50",0.0,21.4,60.5,1015.6,137.0,2.0,3.6,126.0,0.53,13.5,13.7,"10:42:48",1
"22/04/10","11:00",0.0,21.6,59.4,1015.6,170.5,2.1,4.7,133.0,0.54,13.4,13.8,"10:54:32",1
"22/04/10","11:10",0.0,22.1,58.7,1015.6,156.7,1.8,3.7,119.9,0.56,13.7,13.8,"11:02:08",1
"22/04/10","11:20",0.0,22.6,58.0,1015.4,144.4,2.0,4.4,126.7,0.56,14.0,14.1,"11:10:48",1
"22/04/10","11:30",0.0,22.5,58.0,1015.2,119.8,2.1,4.3,113.8,0.57,13.9,14.2,"11:26:16",1
"22/04/10","11:40",0.0,23.3,58.1,1014.9,144.0,1.8,5.0,118.6,0.58,14.6,14.3,"11:32:08",1
"22/04/10","11:50",0.0,23.7,56.0,1014.7,159.6,1.7,4.0,195.3,0.58,14.5,14.2,"11:46:24",1
"22/04/10","12:00",0.0,23.7,53.7,1014.2,175.6,2.1,4.2,183.0,0.59,13.8,14.3,"11:57:20",1
"22/04/10","12:10",0.0,24.3,52.6,1014.2,145.7,1.8,4.3,98.3,0.60,14.0,14.7,"12:08:08",1
"22/04/10","12:20",0.0,24.4,52.4,1014.5,139.4,2.3,4.9,120.9,0.60,14.1,14.7,"12:13:28",1
"22/04/10","12:30",0.0,24.4,51.9,1014.0,124.8,2.3,4.9,121.5,0.60,13.9,14.9,"12:26:56",1
"22/04/10","12:40",0.0,24.9,50.8,1013.8,137.8,2.6,5.7,115.9,0.60,14.1,15.0,"12:30:16",1
"22/04/10","12:50",0.0,25.5,49.4,1013.3,149.6,2.3,5.4,142.3,0.59,14.2,15.2,"12:48:00",1
"22/04/10","13:00",0.0,25.7,48.2,1013.0,133.9,1.8,4.2,114.6,0.58,14.0,15.2,"12:56:08",1
"22/04/10","13:10",0.0,25.8,45.6,1012.6,155.6,2.2,4.3,140.5,0.59,13.2,15.3,"13:01:12",1
"22/04/10","13:20",0.0,26.2,48.8,1012.3,181.1,1.8,4.7,132.4,0.58,14.6,15.6,"13:10:24",1
"22/04/10","13:30",0.0,26.2,45.0,1012.1,215.8,2.0,3.6,223.6,0.58,13.4,15.8,"13:25:12",1
"22/04/10","13:40",0.0,26.6,43.7,1011.9,160.8,1.7,4.7,167.9,0.57,13.3,15.7,"13:31:36",1
"22/04/10","13:50",0.0,27.1,42.8,1012.3,164.5,1.3,3.5,125.4,0.56,13.4,16.1,"13:46:24",1
"22/04/10","14:00",0.0,26.9,42.4,1012.3,179.7,1.6,4.1,206.5,0.54,13.1,16.0,"13:57:44",1
"22/04/10","14:10",0.0,26.7,42.9,1012.3,126.1,2.0,4.1,116.8,0.53,13.1,16.0,"14:07:04",1
"22/04/10","14:20",0.0,26.7,41.8,1011.9,147.9,2.2,5.2,168.2,0.52,12.7,16.2,"14:18:24",1
"22/04/10","14:30",0.0,27.1,39.8,1012.1,157.2,2.0,3.7,210.5,0.50,12.3,16.5,"14:20:24",1
"22/04/10","14:40",0.0,26.8,38.0,1012.1,143.4,3.0,5.1,122.6,0.49,11.3,16.4,"14:30:40",1
"22/04/10","14:50",0.0,27.1,37.1,1011.9,176.5,2.3,4.3,175.6,0.47,11.3,16.4,"14:43:04",1
"22/04/10","15:00",0.0,27.2,34.1,1011.9,169.8,2.2,4.2,223.6,0.46,10.1,16.7,"14:57:52",1
"22/04/10","15:10",0.0,27.3,34.3,1011.9,176.8,3.0,5.8,132.5,0.44,10.2,16.8,"15:08:16",1
"22/04/10","15:20",0.0,27.4,33.7,1011.6,159.6,3.2,4.8,175.3,0.41,10.1,16.9,"15:17:28",1
"22/04/10","15:30",0.0,27.6,35.0,1011.4,153.2,2.8,4.8,160.7,0.38,10.8,17.0,"15:20:56",1
"22/04/10","15:40",0.0,27.5,32.5,1011.6,154.1,2.8,5.2,130.6,0.36,9.6,16.9,"15:38:40",1
"22/04/10","15:50",0.0,27.6,33.5,1011.4,166.4,2.2,4.9,129.3,0.34,10.2,17.2,"15:49:44",1
"22/04/10","16:00",0.0,27.4,33.1,1011.4,174.5,2.5,4.4,212.8,0.32,9.8,17.2,"15:56:16",1
"22/04/10","16:10",0.0,27.7,31.7,1010.9,166.0,2.5,4.4,165.7,0.29,9.4,17.2,"16:06:08",1
"22/04/10","16:20",0.0,27.3,31.2,1010.9,180.2,2.7,4.5,119.7,0.24,8.8,17.2,"16:17:12",1
"22/04/10","16:30",0.0,26.9,30.3,1010.9,157.2,3.4,5.7,125.1,0.19,8.1,17.1,"16:20:48",1
"22/04/10","16:40",0.0,27.0,31.1,1011.2,184.0,3.0,5.5,187.7,0.22,8.5,17.3,"16:32:00",1
"22/04/10","16:50",0.0,26.9,31.3,1011.2,175.7,2.6,4.3,164.6,0.18,8.5,17.4,"16:43:52",1
"22/04/10","17:00",0.0,26.9,29.9,1011.2,174.8,2.6,5.0,188.1,0.15,7.9,17.2,"16:52:40",1
"22/04/10","17:10",0.0,26.6,30.8,1011.4,182.3,2.6,4.1,180.0,0.12,8.0,17.3,"17:00:32",1
"22/04/10","17:20",0.0,26.5,32.0,1011.4,175.0,2.2,3.5,139.5,0.09,8.5,17.2,"17:17:12",1
"22/04/10","17:30",0.0,26.4,32.6,1011.6,168.8,2.0,3.3,140.6,0.09,8.7,17.2,"17:24:08",1
"22/04/10","17:40",0.0,25.6,34.3,1011.6,197.0,1.8,3.5,217.7,0.03,8.8,17.2,"17:31:28",1
"22/04/10","17:50",0.0,25.5,34.2,1011.4,176.0,1.8,2.6,123.7,0.03,8.6,17.4,"17:45:20",1
"22/04/10","18:00",0.0,25.3,37.0,1011.9,200.7,1.5,2.6,183.8,0.03,9.6,17.3,"17:50:08",1
"22/04/10","18:10",0.0,24.8,37.6,1011.9,228.6,1.3,2.6,230.9,0.03,9.4,17.1,"18:01:28",1
"22/04/10","18:20",0.0,24.4,39.7,1011.9,275.0,0.8,2.1,343.1,0.01,9.9,17.3,"18:19:28",1
"22/04/10","18:30",0.0,23.5,43.9,1011.9,340.2,1.5,2.5,345.0,0.00,10.6,17.3,"18:29:04",1
"22/04/10","18:40",0.0,22.7,45.5,1012.1,336.0,1.3,2.1,340.4,0.00,10.4,17.4,"18:31:04",1
"22/04/10","18:50",0.0,22.1,46.2,1012.3,337.6,0.6,1.1,340.1,0.00,10.1,17.1,"18:42:48",1
"22/04/10","19:00",0.0,21.6,48.2,1012.6,289.6,0.8,1.2,301.8,0.00,10.2,17.1,"18:50:32",1
"22/04/10","19:10",0.0,21.4,48.1,1012.6,294.9,1.1,3.7,345.9,0.00,10.0,17.1,"19:09:36",1
"22/04/10","19:20",0.0,21.4,49.0,1012.6,331.8,1.7,3.6,347.9,0.00,10.3,17.1,"19:10:08",1
"22/04/10","19:30",0.0,20.9,51.3,1012.8,338.8,1.1,2.2,343.8,0.00,10.5,17.3,"19:21:44",1
"22/04/10","19:40",0.0,20.4,53.1,1013.3,317.0,2.2,3.6,336.5,0.00,10.6,17.0,"19:36:24",1
"22/04/10","19:50",0.0,19.9,54.8,1013.5,332.8,2.5,3.5,341.2,0.00,10.6,16.9,"19:46:00",1
"22/04/10","20:00",0.0,19.4,54.1,1013.8,341.9,2.8,3.7,342.5,0.00,9.9,17.0,"19:56:40",1
"22/04/10","20:10",0.0,19.9,53.9,1014.0,333.2,2.2,3.5,347.7,0.00,10.3,16.7,"20:08:56",1
"22/04/10","20:20",0.0,18.9,56.6,1014.0,332.0,2.3,3.4,325.9,0.00,10.1,16.7,"20:12:32",1
"22/04/10","20:30",0.0,18.6,57.8,1014.5,340.8,2.0,2.8,341.0,0.00,10.2,16.9,"20:21:12",1
"22/04/10","20:40",0.0,18.2,59.3,1014.5,341.7,1.8,2.7,341.0,0.00,10.2,16.8,"20:31:28",1
"22/04/10","20:50",0.0,17.9,59.7,1014.5,331.3,1.5,2.8,331.1,0.00,10.0,16.7,"20:49:20",1
"22/04/10","21:00",0.0,17.8,60.2,1014.9,343.4,1.5,2.9,339.2,0.00,10.0,16.6,"20:57:20",1
"22/04/10","21:10",0.0,17.1,61.9,1015.2,290.1,1.3,2.1,255.9,0.00,9.8,16.5,"21:04:08",1
"22/04/10","21:20",0.0,16.8,63.1,1015.4,304.3,1.5,2.0,318.3,0.00,9.8,16.3,"21:18:48",1
"22/04/10","21:30",0.0,16.7,64.3,1015.4,304.8,2.0,2.8,310.6,0.00,10.0,16.5,"21:27:28",1
"22/04/10","21:40",0.0,16.4,65.3,1015.6,308.4,1.6,2.2,311.2,0.00,9.9,16.4,"21:30:02",1
"22/04/10","21:50",0.0,16.3,65.9,1015.9,291.9,1.7,2.6,313.0,0.00,10.0,16.3,"21:42:24",1
"22/04/10","22:00",0.0,16.3,66.0,1016.1,314.4,1.8,2.8,319.5,0.00,10.0,16.2,"21:55:36",1
"22/04/10","22:10",0.0,16.3,65.9,1015.9,304.6,2.2,2.6,293.3,0.00,10.0,16.3,"22:01:52",1
"22/04/10","22:20",0.0,16.1,65.9,1015.6,300.1,1.8,3.1,314.9,0.00,9.8,16.2,"22:11:04",1
"22/04/10","22:30",0.0,16.0,66.3,1015.6,310.8,1.8,3.1,319.7,0.00,9.8,15.9,"22:26:40",1
"22/04/10","22:40",0.0,15.8,66.6,1015.6,307.1,1.8,2.6,309.2,0.00,9.6,16.3,"22:33:36",1
"22/04/10","22:50",0.0,15.7,67.2,1015.9,316.3,1.8,2.8,341.0,0.00,9.7,16.0,"22:40:56",1
"22/04/10","23:00",0.0,15.5,67.5,1015.9,293.7,1.3,2.2,256.9,0.00,9.6,15.9,"22:50:32",1
"22/04/10","23:10",0.0,15.4,67.9,1015.9,305.3,1.5,2.2,319.8,0.00,9.5,16.0,"23:06:24",1
"22/04/10","23:20",0.0,15.2,68.6,1015.6,303.4,0.7,2.1,314.4,0.00,9.5,15.8,"23:17:28",1
"22/04/10","23:30",0.0,14.6,70.1,1015.9,322.3,1.5,2.6,323.3,0.00,9.3,16.0,"23:21:44",1
"22/04/10","23:40",0.0,14.4,71.2,1016.1,308.5,1.5,2.8,313.5,0.00,9.3,15.8,"23:35:04",1
"22/04/10","23:50",0.0,14.4,71.8,1016.1,329.1,1.7,2.4,334.9,0.00,9.4,15.9,"23:43:12",1
"22/04/10","24:00",0.0,14.0,72.7,1015.9,302.3,1.1,1.4,319.6,0.00,9.2,15.8,"23:50:16",1
